Simultaneous Nadir Overpasses (SNOs) Predictions

Prediction of SNOs between NOAA-21 and LANDSAT-8 Satellite Orbit:

Table of predicted SNOs for the next 14.0 days since TLE Epoch: 1/28/2024
Index Date (NOAA-21) Time (NOAA-21) Lat,Lon (NOAA-21) SZA (NOAA-21 ) Date (LANDSAT-8) Time (LANDSAT-8) Lat,Lon (LANDSAT-8) SZA (LANDSAT-8 ) Distance(km) Time Diff (sec)
1 01/29/2024 15:42:54 -70.02, 120.28 92.00 01/29/2024 15:43:48 -70.00, 120.33 92.03 2.86 54
2 01/29/2024 16:33:38 69.89, -72.22 87.87 01/29/2024 16:33:15 69.90, -72.17 87.87 1.98 23
3 01/29/2024 17:24:06 -69.08, 96.28 93.01 01/29/2024 17:22:57 -69.13, 94.43 92.87 73.51 69
4 02/01/2024 07:59:45 -69.96,-123.84 92.79 02/01/2024 08:00:20 -69.94,-123.88 92.82 2.54 35
5 02/01/2024 08:50:29 69.84, 43.66 87.07 02/01/2024 08:49:47 69.83, 43.62 87.08 1.55 42
6 02/03/2024 23:26:04 70.52,-176.24 87.05 02/03/2024 23:27:14 70.39,-174.99 86.86 48.37 70
7 02/04/2024 00:16:37 -69.96, -8.05 93.56 02/04/2024 00:16:50 -69.96, -7.98 93.57 2.70 13
8 02/04/2024 01:07:21 69.84, 159.43 86.31 02/04/2024 01:06:17 69.85, 159.51 86.32 3.05 64
9 02/06/2024 15:42:45 70.01, -59.65 85.70 02/06/2024 15:43:50 70.00, -59.69 85.67 1.89 65
10 02/06/2024 16:33:27 -69.92, 107.80 94.41 02/06/2024 16:33:20 -69.89, 107.80 94.44 2.98 7
11 02/06/2024 17:24:04 69.43, -84.18 85.07 02/06/2024 17:22:53 69.45, -85.16 85.14 38.43 71
12 02/09/2024 07:59:36 69.98, 56.18 84.83 02/09/2024 08:00:19 70.01, 56.20 84.85 3.02 43
13 02/09/2024 08:50:18 -69.89,-136.37 95.28 02/09/2024 08:49:49 -69.90,-136.31 95.26 2.82 29



Historial Predications of SNOs between NOAA-21 and LANDSAT-8
